Location: Capvern
(43.1036°N, 0.3160°E)
Time: 23:25:53
(UTC+00:00)

Okean 1-7 Rocket - Pass Details

Date: 16 October 2021
Orbit: 617 x 648 km, 82.5° (Epoch: 04 December)

Event Time Altitude Azimuth Distance (km) Brightness Sun altitude
Rises 18:15:59 0° 3° (N) 2,901 7.0 -12.0°
Reaches altitude 10° 18:18:30 10° 15° (NNE) 1,992 6.0 -12.5°
Maximum altitude 18:22:15 27° 74° (ENE) 1,205 4.5 -13.2°
Enters shadow 18:24:36 17° 119° (ESE) 1,557 5.1 -13.6°
